Biotrans — JWPN — position and weather

sailwx.info

Track history (hours):
 
Tides and Currents Weather Stations Pressure Air Temp Water Temp Dewpoint Dewpoint Depression Visibility Wind Speed Wind Dir Waves Ship Positions

Biotrans

Last reported at 2014-Oct-24 11:12 UTC. Time now 2014-Oct-26 01:56 UTC.
Position N 69°44' E 019°05'.

Length 55 m; draft 5.5 m.

Type: Cargo ship. MMSI: 259260000.

Date/timePositionNaut miles runAvg speedWind from/ knotsBaromVisibWave heightAir tempDewpointWater temp
2014-Oct-24 11:12N 69°44' E 019°05'2 3.1
2014-Oct-24 10:32N 69°42' E 019°04'2 1.8
2014-Oct-24 09:33N 69°41' E 019°01'165 7.2
2014-Oct-23 10:33N 67°30' E 014°28'10 9.9
2014-Oct-23 09:34N 67°20' E 014°21'10 9.9
2014-Oct-23 08:33N 67°12' E 014°07'49 8.9
2014-Oct-23 03:04N 66°31' E 012°58'5 9.4
2014-Oct-23 02:32N 66°26' E 012°59'19 9.4
2014-Oct-23 00:29N 66°07' E 012°46'56 9.0
2014-Oct-22 18:18N 65°15' E 011°56'11 9.3
2014-Oct-22 17:10N 65°06' E 011°48'6 9.4
2014-Oct-22 16:33N 65°01' E 011°41'9 8.9
2014-Oct-22 15:33N 64°55' E 011°24'8 7.9
2014-Oct-22 14:34N 64°50' E 011°11'80 3.0
2014-Oct-21 11:33N 63°44' E 009°27'3 0.4
2014-Oct-21 04:33N 63°47' E 009°28'  
2014-Oct-18 22:34N 64°49' E 011°09'8 8.5
2014-Oct-18 21:34N 64°55' E 011°23'9 8.7
2014-Oct-18 20:31N 65°01' E 011°40'84 6.9
2014-Oct-18 08:19N 66°18' E 012°56'6 7.8
2014-Oct-18 07:34N 66°24' E 012°58'39 7.7
2014-Oct-18 02:32N 66°60' E 013°37'8 8.2
2014-Oct-18 01:32N 67°04' E 013°54'8 8.0
2014-Oct-18 00:33N 67°11' E 014°05'8 8.2
2014-Oct-17 23:34N 67°18' E 014°16'8 8.2
2014-Oct-17 22:34N 67°25' E 014°27'  
2014-Oct-15 18:06N 67°42' E 014°31'5 7.1
2014-Oct-15 17:20N 67°38' E 014°39'7 8.5
2014-Oct-15 16:31N 67°39' E 014°56'9 1.4
2014-Oct-15 10:23N 67°32' E 014°45'810.0
2014-Oct-15 09:33N 67°25' E 014°32'8 8.0
2014-Oct-15 08:33N 67°18' E 014°23'1 1.0
2014-Oct-15 07:33N 67°17' E 014°23'0 0.3
2014-Oct-15 06:33N 67°17' E 014°23'0 0.3
2014-Oct-15 05:33N 67°17' E 014°23'0 0.0
2014-Oct-15 04:33N 67°17' E 014°23'1 0.5
2014-Oct-15 03:33N 67°17' E 014°21'6 6.3
2014-Oct-15 02:33N 67°13' E 014°09'7 7.0
2014-Oct-15 01:32N 67°07' E 013°59'10 6.7
2014-Oct-15 00:06N 67°00' E 013°41'34 6.0
2014-Oct-14 18:29N 66°31' E 012°58'6 6.4
2014-Oct-14 17:31N 66°25' E 012°58'6 6.3
2014-Oct-14 16:33N 66°19' E 012°56'  
Track history (hours):
 
Tides and Currents Weather Stations Pressure Air Temp Water Temp Dewpoint Dewpoint Depression Visibility Wind Speed Wind Dir Waves Ship Positions

Biotrans

Last reported at 2014-Oct-24 11:12 UTC. Time now 2014-Oct-26 01:56 UTC.
Position N 69°44' E 019°05'.

Length 55 m; draft 5.5 m.

Type: Cargo ship. MMSI: 259260000.

Date/timePositionNaut miles runAvg speedWind from/ knotsBaromVisibWave heightAir tempDewpointWater temp
2014-Oct-24 11:12N 69°44' E 019°05'2 3.1
2014-Oct-24 10:32N 69°42' E 019°04'2 1.8
2014-Oct-24 09:33N 69°41' E 019°01'165 7.2
2014-Oct-23 10:33N 67°30' E 014°28'10 9.9
2014-Oct-23 09:34N 67°20' E 014°21'10 9.9
2014-Oct-23 08:33N 67°12' E 014°07'49 8.9
2014-Oct-23 03:04N 66°31' E 012°58'5 9.4
2014-Oct-23 02:32N 66°26' E 012°59'19 9.4
2014-Oct-23 00:29N 66°07' E 012°46'56 9.0
2014-Oct-22 18:18N 65°15' E 011°56'11 9.3
2014-Oct-22 17:10N 65°06' E 011°48'6 9.4
2014-Oct-22 16:33N 65°01' E 011°41'9 8.9
2014-Oct-22 15:33N 64°55' E 011°24'8 7.9
2014-Oct-22 14:34N 64°50' E 011°11'80 3.0
2014-Oct-21 11:33N 63°44' E 009°27'3 0.4
2014-Oct-21 04:33N 63°47' E 009°28'  
2014-Oct-18 22:34N 64°49' E 011°09'8 8.5
2014-Oct-18 21:34N 64°55' E 011°23'9 8.7
2014-Oct-18 20:31N 65°01' E 011°40'84 6.9
2014-Oct-18 08:19N 66°18' E 012°56'6 7.8
2014-Oct-18 07:34N 66°24' E 012°58'39 7.7
2014-Oct-18 02:32N 66°60' E 013°37'8 8.2
2014-Oct-18 01:32N 67°04' E 013°54'8 8.0
2014-Oct-18 00:33N 67°11' E 014°05'8 8.2
2014-Oct-17 23:34N 67°18' E 014°16'8 8.2
2014-Oct-17 22:34N 67°25' E 014°27'  
2014-Oct-15 18:06N 67°42' E 014°31'5 7.1
2014-Oct-15 17:20N 67°38' E 014°39'7 8.5
2014-Oct-15 16:31N 67°39' E 014°56'9 1.4
2014-Oct-15 10:23N 67°32' E 014°45'810.0
2014-Oct-15 09:33N 67°25' E 014°32'8 8.0
2014-Oct-15 08:33N 67°18' E 014°23'1 1.0
2014-Oct-15 07:33N 67°17' E 014°23'0 0.3
2014-Oct-15 06:33N 67°17' E 014°23'0 0.3
2014-Oct-15 05:33N 67°17' E 014°23'0 0.0
2014-Oct-15 04:33N 67°17' E 014°23'1 0.5
2014-Oct-15 03:33N 67°17' E 014°21'6 6.3
2014-Oct-15 02:33N 67°13' E 014°09'7 7.0
2014-Oct-15 01:32N 67°07' E 013°59'10 6.7
2014-Oct-15 00:06N 67°00' E 013°41'34 6.0
2014-Oct-14 18:29N 66°31' E 012°58'6 6.4
2014-Oct-14 17:31N 66°25' E 012°58'6 6.3
2014-Oct-14 16:33N 66°19' E 012°56'  

Dump ship's entire track history